Retour au catalogue

CZ-6A DEB

ActifSSO
NORAD 55525·DEBRIS·🇨🇳 China

Lancé Nov 11, 2022 depuis Taiyuan Satellite Launch Center

Loading…

Prochains Passages (prochaines 24 heures)

TLE

FraisSource: Space-Track

Époque: Sep 14, 2026, 22:14 UTC

1 55525U 22151XX  26257.92692255 -.00000099  00000-0 -35312-4 0  9993
2 55525  98.9179 242.3846 0094276 154.9655 205.6126 14.02547746191068

Suivez CZ-6A DEB en temps réel avec AllMySat

Download on the App Store